New Roads False River Regiona, LA

8:29 PM CDT on July 22, 2019 (GMT -0500)
False River

Weather History for KHZR - May, 2019

Change the Weather History Date:

Friday, May 3, 2019

  Actual Average (KBTR) Record (KBTR)
Temperature  
Mean Temperature 76 °F -  
Max Temperature 82 °F 79 °F 92 °F (1943)
Min Temperature 69 °F 60 °F 44 °F (2013)
Cooling Degree Days 10    
Growing Degree Days 26 (Base 50)    
Moisture  
Dew Point 68 °F    
Average Humidity 79    
Maximum Humidity 100    
Minimum Humidity 54    
Precipitation  
Precipitation 0.00 in - - ()
Sea Level Pressure  
Sea Level Pressure 29.95 in    
Wind  
Wind Speed 2 mph (SSE)    
Max Wind Speed 8 mph    
Max Gust Speed -    
Visibility 10 miles    
Events      
Averages and records for this station are not official NWS values.
T = Trace of Precipitation, MM = Missing Value Source: NWS Daily Summary

Daily Weather History Graph

Daily Weather History Graph

Search for Another Location

Airport or City:

Astronomy

May. 03, 2019 Rise Set
Actual Time 6:20 AM CDT 7:45 PM CDT
Civil Twilight 5:54 AM CDT 8:11 PM CDT
Nautical Twilight 5:24 AM CDT 8:42 PM CDT
Astronomical Twilight 4:52 AM CDT 9:14 PM CDT
Moon 5:50 AM CDT (5/3) 6:42 PM CDT (5/3)
Length of Visible Light 14h 16m
Length of Day
13h 25m
Waning Crescent, 2% of the Moon is Illuminated
May 3
Waning Crescent
May 4
New
May 11
First Quarter
May 18
Full
May 26
Last Quarter

Hourly Weather History & Observations

Time (CDT) Temp. Heat Index Dew Point Humidity Pressure Visibility Wind Dir Wind Speed Gust Speed Precip Events Conditions
12:15 AM 71.6 °F - 68.0 °F 88% 30.05 in 10.0 mi Calm Calm - N/A   Scattered Clouds
12:57 AM 71.6 °F - 69.8 °F 94% 30.03 in 10.0 mi Calm Calm - N/A   Mostly Cloudy
1:56 AM 71.6 °F - 68.0 °F 88% 30.00 in 10.0 mi Calm Calm - N/A   Scattered Clouds
2:16 AM 71.6 °F - 68.0 °F 88% 29.99 in 10.0 mi Calm Calm - N/A   Clear
2:35 AM 69.8 °F - 69.8 °F 100% 29.99 in 10.0 mi Calm Calm - N/A   Scattered Clouds
2:55 AM 69.8 °F - 68.0 °F 94% 29.99 in 10.0 mi NE 4.6 mph - N/A   Scattered Clouds
3:16 AM 69.8 °F - 68.0 °F 94% 29.97 in 10.0 mi East 3.5 mph - N/A   Clear
3:38 AM 69.8 °F - 68.0 °F 94% 29.97 in 10.0 mi Calm Calm - N/A   Scattered Clouds
4:15 AM 69.8 °F - 68.0 °F 94% 29.96 in 10.0 mi Calm Calm - N/A   Scattered Clouds
4:37 AM 69.8 °F - 68.0 °F 94% 29.96 in 10.0 mi Calm Calm - N/A   Overcast
4:57 AM 69.8 °F - 68.0 °F 94% 29.97 in 10.0 mi Calm Calm - N/A   Overcast
5:15 AM 69.8 °F - 69.8 °F 100% 29.97 in 10.0 mi Calm Calm - N/A   Overcast
5:35 AM 69.8 °F - 69.8 °F 100% 29.98 in 10.0 mi North - - N/A   Mostly Cloudy
5:58 AM - - - N/A% 29.98 in 10.0 mi Calm Calm - N/A   Scattered Clouds
6:38 AM 69.8 °F - 68.0 °F 94% 30.00 in 7.0 mi Calm Calm - N/A   Mostly Cloudy
7:15 AM 69.8 °F - 69.8 °F 100% 30.00 in 7.0 mi Calm Calm - N/A   Clear
7:35 AM 69.8 °F - 69.8 °F 100% 30.00 in 7.0 mi Calm Calm - N/A   Clear
8:16 AM 73.4 °F - 71.6 °F 94% 30.00 in 10.0 mi Calm Calm - N/A   Scattered Clouds
8:36 AM 75.2 °F - 71.6 °F 89% 30.00 in 10.0 mi SE 5.8 mph - N/A   Clear
8:56 AM 73.4 °F - 71.6 °F 94% 30.00 in 10.0 mi East 3.5 mph - N/A   Clear
9:35 AM 75.2 °F - 69.8 °F 83% 30.00 in 10.0 mi SE 3.5 mph - N/A   Scattered Clouds
9:55 AM 75.2 °F - 69.8 °F 83% 30.01 in 10.0 mi SE 5.8 mph - N/A   Mostly Cloudy
10:55 AM 78.8 °F - 69.8 °F 74% 30.01 in 10.0 mi SSE 4.6 mph - N/A   Mostly Cloudy
12:15 PM 80.6 °F 83.2 °F 68.0 °F 65% 30.01 in 10.0 mi SE 8.1 mph - N/A   Clear
12:37 PM 80.6 °F 82.7 °F 66.2 °F 61% 30.02 in 10.0 mi SSE 5.8 mph - N/A   Clear
12:55 PM 80.6 °F 83.2 °F 68.0 °F 65% 30.01 in 10.0 mi South 5.8 mph - N/A   Clear
1:17 PM 80.6 °F 83.9 °F 69.8 °F 70% 30.00 in 10.0 mi South 4.6 mph - N/A   Scattered Clouds
1:56 PM 80.6 °F 82.7 °F 66.2 °F 61% 29.99 in 10.0 mi South 4.6 mph - N/A   Scattered Clouds
2:55 PM 82.4 °F 84.6 °F 66.2 °F 58% 29.96 in 10.0 mi South 6.9 mph - N/A   Clear
3:16 PM 82.4 °F 83.9 °F 64.4 °F 54% 29.94 in 10.0 mi SSE 6.9 mph - N/A   Clear
3:36 PM 82.4 °F 84.6 °F 66.2 °F 58% 29.93 in 10.0 mi South 4.6 mph - N/A   Clear
4:15 PM 80.6 °F 82.7 °F 66.2 °F 61% 29.91 in 10.0 mi SSW 4.6 mph - N/A   Clear
4:35 PM 82.4 °F 84.6 °F 66.2 °F 58% 29.90 in 10.0 mi SSE 4.6 mph - N/A   Clear
4:55 PM 82.4 °F 84.6 °F 66.2 °F 58% 29.90 in 10.0 mi SSE 6.9 mph - N/A   Clear
5:15 PM 80.6 °F 82.7 °F 66.2 °F 61% 29.89 in 10.0 mi South 5.8 mph - N/A   Clear
5:35 PM 80.6 °F 82.7 °F 66.2 °F 61% 29.89 in 10.0 mi SSE 3.5 mph - N/A   Clear
5:55 PM 80.6 °F 82.7 °F 66.2 °F 61% 29.87 in 10.0 mi SSE 4.6 mph - N/A   Clear
6:15 PM 80.6 °F 82.7 °F 66.2 °F 61% 29.88 in 10.0 mi Calm Calm - N/A   Clear
6:36 PM 80.6 °F 82.7 °F 66.2 °F 61% 29.87 in 10.0 mi East 3.5 mph - N/A   Clear
7:16 PM 78.8 °F - 68.0 °F 69% 29.87 in 10.0 mi South 3.5 mph - N/A   Scattered Clouds
7:37 PM 78.8 °F - 68.0 °F 69% 29.87 in 10.0 mi South 5.8 mph - N/A   Overcast
7:55 PM 78.8 °F - 68.0 °F 69% 29.87 in 10.0 mi Calm Calm - N/A   Mostly Cloudy
8:15 PM 77.0 °F - 69.8 °F 78% 29.88 in 10.0 mi SSW 4.6 mph - N/A   Mostly Cloudy
8:56 PM 77.0 °F - 68.0 °F 74% 29.88 in 10.0 mi South 3.5 mph - N/A   Scattered Clouds
9:57 PM 75.2 °F - 69.8 °F 83% 29.89 in 10.0 mi Calm Calm - N/A   Mostly Cloudy
10:35 PM 75.2 °F - 69.8 °F 83% 29.90 in 10.0 mi South 3.5 mph - N/A   Scattered Clouds
10:55 PM 75.2 °F - 69.8 °F 83% 29.91 in 10.0 mi South 5.8 mph - N/A   Scattered Clouds
11:16 PM 75.2 °F - 69.8 °F 83% 29.92 in 10.0 mi South 4.6 mph - N/A   Scattered Clouds
11:35 PM 73.4 °F - 69.8 °F 88% 29.92 in 10.0 mi South 4.6 mph - N/A   Clear